Regional Weather Roundup
Issued by NWS Sioux Falls, SD

Home | Current Version | Previous Version | Graphics & Text | Print | Product List | Glossary Off
Versions: 1 2 3 4 5 6 7 8 9 10 11 12 13 14 15 16 17 18 19 20 21 22 23 24 25 26 27 28 29 30 31 32 33 34 35 36 37 38 39 40 41 42 43 44 45 46 47 48 49 50

000
ASUS43 KFSD 282010
RWRFSD

WEATHER ROUNDUP FOR SE SOUTH DAKOTA/SW MINNESOTA/NW IOWA
NATIONAL WEATHER SERVICE SIOUX FALLS SD
200 PM CST SAT FEB 28 2015

NOTE: "FAIR" INDICATES FEW OR NO CLOUDS BELOW 12,000 FEET WITH NO
SIGNIFICANT WEATHER AND OR OBSTRUCTIONS TO VISIBILITY.


SDZ038>040-050-052>070-282100-
SOUTHEAST SOUTH DAKOTA

CITY           SKY/WX    TMP DP  RH WIND       PRES   REMARKS
CHAMBERLAIN    SUNNY     33  10  38 SW14G20   30.14F WCI  23
HURON          SUNNY     28  13  53 S15       30.18  WCI  16
MADISON        CLOUDY    21  14  73 S21G32    30.20F WCI   6
MITCHELL       PTSUNNY   30   9  41 S16G25    30.21F WCI  19
SIOUX FALLS    PTSUNNY   23  13  65 S22G31    30.25F WCI   8
WINNER         FAIR      35   9  33 W17       30.12  WCI  25
YANKTON        SUNNY     28  10  47 S15       30.26F WCI  17
$$

MNZ071-072-080-081-089-090-097-098-282100-
SOUTHWEST MINNESOTA

CITY           SKY/WX    TMP DP  RH WIND       PRES   REMARKS
FAIRMONT       CLOUDY    18   5  57 S18       30.36F WCI   2
JACKSON        MOSUNNY   21  10  63 S18G24    30.34F WCI   6
LUVERNE        PTSUNNY   23  14  68 S20       30.29F WCI   8
MARSHALL       MOSUNNY   21  10  63 S20G26    30.31F WCI   6
MONTEVIDEO     PTSUNNY   25  12  58 SW16G24   30.30F WCI  12
PIPESTONE      CLOUDY    19  12  73 S23       30.24F WCI   2
REDWOOD FALLS  SUNNY     21   9  59 S21       30.34  WCI   5
TRACY          SUNNY     23  12  62 S17G23    30.28F WCI   9
WINDOM         SUNNY     19   9  63 S14G23    30.32F WCI   6
WORTHINGTON    SUNNY     28   7  40 S20G28    30.31F WCI  15
$$

IAZ001>003-012>014-020>022-031-032-NEZ013-014-SDZ071-282100-
NORTHWEST IOWA

CITY           SKY/WX    TMP DP  RH WIND       PRES   REMARKS
CHEROKEE       MOSUNNY   20  11  66 S18G24    30.36F WCI   5
DENISON        PTSUNNY   21  12  68 S13G21    30.35F WCI   9
ESTHERVILLE    MOSUNNY   18   8  65 S20       30.35F WCI   2
LE MARS        CLOUDY    23  14  68 S15G23    30.33F WCI  10
ORANGE CITY    CLOUDY    23  12  63 S15       30.31F WCI  10
SHELDON        CLOUDY    19  10  68 S18       30.31F WCI   4
SIOUX CITY     CLOUDY    25  14  63 S15       30.35F WCI  13
SPENCER        SUNNY     21   9  59 S20       30.34  WCI   6
STORM LAKE     CLOUDY    19   9  63 S16       30.35F WCI   5
$$

ABBREVIATIONS USED IN REMARKS
   TC - TEMPERATURE IN CELSIUS
  WCI - WIND CHILL INDEX
   HX - HEAT INDEX
  VSB - VISIBILITY




USA.gov is the U.S. government's official web portal to all federal, state and local government web resources and services.